Flag for India Weather past 2 weeks in Bhabua, Bihar, India

Now
91 °F

Scattered clouds.


Feels Like: 103 °F
Forecast: 80 / 93 °F
Wind: 1 mph from South

Location: Varanasi / Babatpur

Current Time: Jul 24, 2014 at 4:14:44 PM

Latest Report: Jul 24, 2014 at 3:00 PM


Visibility: 4 mi

Pressure: 29.53 "Hg

Humidity: 59%

Dew point: 75 °F

Location of BhabuaLocation

Historic Weather in Bhabua — Graph

°F

Bhabua temperature yesterday

Maximum temperature yesterday: 86 °F (at 10:00 AM)
Minimum temperature yesterday: 79 °F (at 5:00 AM)
Average temperature yesterday: 83 °F

Past Weeks' High & Low Weather Summary

 TemperatureHumidityPressure
High102 °F (Jul 12, 4:00 AM)100% (Jul 17, 6:00 PM)29.59 "Hg (Jul 17, 6:00 PM)
Low77 °F (Jul 24, 4:00 AM)48% (Jul 12, 4:00 AM)29.33 "Hg (Jul 19, 4:00 PM)
Average87 °F78%29.45 "Hg
* Reported Jul 9 7:00 PM — Jul 24 3:00 PM, Bhabua, Weather by CustomWeather, © 2014

Note: Actual official high and low records may vary slightly from our data, if they occured in-between our weather recording intervals... More about our weather records

Advertising

Bhabua weather history for previous 24 hours

 ConditionsComfort  
Time TempWeatherWind HumidityBarometerVisibility
3:00 PM
Jul 24
91 °FScattered clouds.1 mph59%29.53 "Hg4 mi
2:00 PM91 °FScattered clouds.1 mph56%29.53 "Hg4 mi
1:00 PM88 °FScattered clouds.1 mph62%29.56 "Hg4 mi
12:00 PM88 °FScattered clouds.2 mph62%29.56 "Hg4 mi
11:00 AM88 °FScattered clouds.3 mph62%29.56 "Hg3 mi
9:00 AM86 °FScattered clouds.5 mph66%29.59 "Hg3 mi
8:00 AM81 °FHaze.6 mph79%29.56 "Hg3 mi
7:00 AM81 °FScattered clouds.1 mph74%29.56 "Hg3 mi
6:00 AM77 °FBroken clouds.No wind83%29.53 "Hg3 mi
5:00 AM77 °FPartly cloudy.2 mph83%29.53 "Hg3 mi
4:00 AM77 °FPassing clouds.2 mph83%29.50 "Hg3 mi
12:00 AM81 °FHaze.1 mph84%29.53 "Hg3 mi
11:00 PM
Jul 23
82 °FHaze.No wind79%29.56 "Hg3 mi
10:00 PM82 °FHaze.2 mph79%29.53 "Hg3 mi
9:00 PM82 °FHaze.2 mph79%29.53 "Hg3 mi
8:00 PM84 °FHaze.2 mph74%29.50 "Hg3 mi
6:00 PM86 °FScattered clouds.5 mph70%29.47 "Hg4 mi
Weather by CustomWeather, © 2014

See weather overviewHow to use our weather pages